,,Stat6,,Stat2,,Stat8,,Stat9,,Stat10,,Wind1,,Wind1,
time,status,PA1M_AVG,status,PR1M_SUM,status,RH1M_AVG,status,SR1M_AVG,status,TA1M_AVG,status,W1dAve1m,status,W1sAve1m,
2007-10-10, 00:00:00,VALID,917.231,VALID,0,VALID,100,VALID,0,VALID,19.1785,VALID,149,VALID,0.509487,
2007-10-10, 00:01:00,VALID,917.217,VALID,0,VALID,100,VALID,0.0169808,VALID,19.1818,VALID,117,VALID,0.912997,
2007-10-10, 00:02:00,VALID,917.205,VALID,0,VALID,100,VALID,0.0169808,VALID,19.1561,VALID,96,VALID,0.83647,
2007-10-10, 00:03:00,VALID,917.172,VALID,0,VALID,100,VALID,0,VALID,19.1106,VALID,101,VALID,0.673692,
2007-10-10, 00:04:00,VALID,917.136,VALID,0,VALID,100,VALID,0,VALID,19.0847,VALID,112,VALID,0.59561,
2007-10-10, 00:05:00,VALID,917.097,VALID,0,VALID,100,VALID,0,VALID,19.075,VALID,112,VALID,0.346591,
2007-10-10, 00:06:00,VALID,917.062,VALID,0,VALID,100,VALID,0,VALID,19.0455,VALID,112,VALID,0.385975,
2007-10-10, 00:07:00,VALID,917.044,VALID,0,VALID,100,VALID,0.0169808,VALID,19.0425,VALID,112,VALID,0.151105,
2007-10-10, 00:08:00,VALID,917.036,VALID,0,VALID,100,VALID,0,VALID,19.0198,VALID,112,VALID,0,
2007-10-10, 00:09:00,VALID,917.033,VALID,0,VALID,100,VALID,-0.0169808,VALID,18.9742,VALID,112,VALID,0.0369318,
2007-10-10, 00:10:00,VALID,917.027,VALID,0,VALID,100,VALID,0,VALID,18.9322,VALID,112,VALID,0.529652,
2007-10-10, 00:11:00,VALID,917.013,VALID,0,VALID,100,VALID,0,VALID,18.8901,VALID,107,VALID,0.864524,
2007-10-10, 00:12:00,VALID,917,VALID,0,VALID,100,VALID,0.0339617,VALID,18.8901,VALID,93,VALID,0.830611,
2007-10-10, 00:13:00,VALID,916.985,VALID,0,VALID,100,VALID,-0.0169808,VALID,18.8382,VALID,88,VALID,0.651811,
2007-10-10, 00:14:00,VALID,916.97,VALID,0,VALID,100,VALID,-0.0169808,VALID,18.809,VALID,88,VALID,0.256944,
2007-10-10, 00:15:00,VALID,916.958,VALID,0,VALID,100,VALID,0,VALID,18.809,VALID,85,VALID,0.254607,
2007-10-10, 00:16:00,VALID,916.944,VALID,0,VALID,100,VALID,-0.0169808,VALID,18.809,VALID,84,VALID,0.136052,
2007-10-10, 00:17:00,VALID,916.928,VALID,0,VALID,100,VALID,0.0509425,VALID,18.8152,VALID,84,VALID,0.00603693,
2007-10-10, 00:18:00,VALID,916.917,VALID,0,VALID,100,VALID,0.0339617,VALID,18.825,VALID,84,VALID,0,
2007-10-10, 00:19:00,VALID,916.892,VALID,0,VALID,100,VALID,0,VALID,18.8349,VALID,84,VALID,0,
2007-10-10, 00:20:00,VALID,916.876,VALID,0,VALID,100,VALID,0.0169808,VALID,18.8412,VALID,84,VALID,0.0159884,
2007-10-10, 00:21:00,VALID,916.869,VALID,0,VALID,100,VALID,0.0169808,VALID,18.8539,VALID,84,VALID,0.0390625,
2007-10-10, 00:22:00,VALID,916.854,VALID,0,VALID,100,VALID,-0.0509425,VALID,18.8491,VALID,84,VALID,0.0459223,
2007-10-10, 00:23:00,VALID,916.858,VALID,0,VALID,100,VALID,-0.101885,VALID,18.8296,VALID,84,VALID,0.332317,
2007-10-10, 00:24:00,VALID,916.87,VALID,0,VALID,100,VALID,-0.0849042,VALID,18.8037,VALID,93,VALID,0.510417,
2007-10-10, 00:25:00,VALID,916.883,VALID,0,VALID,100,VALID,0.0169808,VALID,18.7763,VALID,124,VALID,0.652902,
2007-10-10, 00:26:00,VALID,916.874,VALID,0,VALID,100,VALID,0,VALID,18.7469,VALID,128,VALID,0.564844,
2007-10-10, 00:27:00,VALID,916.855,VALID,0,VALID,100,VALID,0,VALID,18.7244,VALID,128,VALID,0.280506,
2007-10-10, 00:28:00,VALID,916.842,VALID,0,VALID,100,VALID,0.0169808,VALID,18.6853,VALID,129,VALID,0.476563,
2007-10-10, 00:29:00,VALID,916.829,VALID,0,VALID,100,VALID,0.0169808,VALID,18.6563,VALID,142,VALID,0.477493,
2007-10-10, 00:30:00,VALID,916.824,VALID,0,VALID,100,VALID,0,VALID,18.6234,VALID,181,VALID,0.677912,
2007-10-10, 00:31:00,VALID,916.826,VALID,0,VALID,100,VALID,0,VALID,18.6079,VALID,188,VALID,0.829427,
2007-10-10, 00:32:00,VALID,916.819,VALID,0,VALID,100,VALID,0,VALID,18.5882,VALID,188,VALID,0.631098,
2007-10-10, 00:33:00,VALID,916.808,VALID,0,VALID,100,VALID,0,VALID,18.5914,VALID,188,VALID,0.702009,
2007-10-10, 00:34:00,VALID,916.777,VALID,0,VALID,100,VALID,0,VALID,18.5815,VALID,188,VALID,0.650391,
2007-10-10, 00:35:00,VALID,916.76,VALID,0,VALID,100,VALID,0.0339617,VALID,18.5977,VALID,188,VALID,0.458333,
2007-10-10, 00:36:00,VALID,916.741,VALID,0,VALID,100,VALID,-0.0169808,VALID,18.6072,VALID,188,VALID,0.10293,
2007-10-10, 00:37:00,VALID,916.726,VALID,0,VALID,100,VALID,0.0169808,VALID,18.6274,VALID,188,VALID,0.196403,
2007-10-10, 00:38:00,VALID,916.709,VALID,0,VALID,100,VALID,0,VALID,18.6331,VALID,188,VALID,0.00571646,
2007-10-10, 00:39:00,VALID,916.716,VALID,0,VALID,100,VALID,0,VALID,18.6433,VALID,188,VALID,0.00853924,
2007-10-10, 00:40:00,VALID,916.717,VALID,0,VALID,100,VALID,0,VALID,18.6301,VALID,200,VALID,0.594494,
2007-10-10, 00:41:00,VALID,916.714,VALID,0,VALID,100,VALID,0,VALID,18.6072,VALID,216,VALID,0.749645,
2007-10-10, 00:42:00,VALID,916.705,VALID,0,VALID,100,VALID,0,VALID,18.5917,VALID,229,VALID,0.767361,
2007-10-10, 00:43:00,VALID,916.707,VALID,0,VALID,100,VALID,0.0169808,VALID,18.5882,VALID,239,VALID,1.23855,
2007-10-10, 00:44:00,VALID,916.709,VALID,0,VALID,100,VALID,-0.0169808,VALID,18.5819,VALID,236,VALID,1.05596,
2007-10-10, 00:45:00,VALID,916.708,VALID,0,VALID,100,VALID,-0.0169808,VALID,18.5882,VALID,233,VALID,1.2935,
2007-10-10, 00:46:00,VALID,916.712,VALID,0,VALID,100,VALID,-0.0339617,VALID,18.6072,VALID,238,VALID,1.37863,
2007-10-10, 00:47:00,VALID,916.713,VALID,0,VALID,100,VALID,-0.0339617,VALID,18.6698,VALID,236,VALID,1.39634,
2007-10-10, 00:48:00,VALID,916.717,VALID,0,VALID,100,VALID,-0.0339617,VALID,18.6987,VALID,232,VALID,1.43714,
2007-10-10, 00:49:00,VALID,916.705,VALID,0,VALID,100,VALID,0,VALID,18.7344,VALID,235,VALID,1.14918,
2007-10-10, 00:50:00,VALID,916.714,VALID,0,VALID,100,VALID,-0.0339617,VALID,18.7606,VALID,234,VALID,1.53285,
2007-10-10, 00:51:00,VALID,916.705,VALID,0,VALID,100,VALID,0,VALID,18.7798,VALID,238,VALID,1.45476,
2007-10-10, 00:52:00,VALID,916.686,VALID,0,VALID,100,VALID,-0.0509425,VALID,18.8095,VALID,233,VALID,1.44792,
2007-10-10, 00:53:00,VALID,916.663,VALID,0,VALID,100,VALID,-0.101885,VALID,18.8095,VALID,228,VALID,1.07209,
2007-10-10, 00:54:00,VALID,916.65,VALID,0,VALID,100,VALID,-0.101885,VALID,18.8491,VALID,240,VALID,0.674132,
2007-10-10, 00:55:00,VALID,916.62,VALID,0,VALID,100,VALID,-0.101885,VALID,18.8551,VALID,227,VALID,0.618823,
2007-10-10, 00:56:00,VALID,916.604,VALID,0,VALID,100,VALID,-0.101885,VALID,18.8521,VALID,211,VALID,0.807413,
2007-10-10, 00:57:00,VALID,916.569,VALID,0,VALID,100,VALID,-0.0849042,VALID,18.8521,VALID,199,VALID,0.430078,
2007-10-10, 00:58:00,VALID,916.544,VALID,0,VALID,100,VALID,-0.101885,VALID,18.8454,VALID,198,VALID,0.382626,
2007-10-10, 00:59:00,VALID,916.52,VALID,0,VALID,100,VALID,-0.0849042,VALID,18.8164,VALID,197,VALID,0.620164,
2007-10-10, 01:00:00,VALID,916.501,VALID,0,VALID,100,VALID,-0.101885,VALID,18.797,VALID,194,VALID,0.835751,
2007-10-10, 01:01:00,VALID,916.474,VALID,0,VALID,100,VALID,-0.0849042,VALID,18.7837,VALID,189,VALID,0.651953,
2007-10-10, 01:02:00,VALID,916.454,VALID,0,VALID,100,VALID,-0.135847,VALID,18.7546,VALID,171,VALID,0.907012,
2007-10-10, 01:03:00,VALID,916.416,VALID,0,VALID,100,VALID,-0.0849042,VALID,18.7383,VALID,159,VALID,0.90483,
2007-10-10, 01:04:00,VALID,916.393,VALID,0,VALID,100,VALID,-0.101885,VALID,18.7284,VALID,149,VALID,0.99349,
2007-10-10, 01:05:00,VALID,916.394,VALID,0,VALID,100,VALID,-0.101885,VALID,18.7159,VALID,144,VALID,0.911776,
2007-10-10, 01:06:00,VALID,916.378,VALID,0,VALID,100,VALID,-0.101885,VALID,18.6864,VALID,139,VALID,0.957919,
2007-10-10, 01:07:00,VALID,916.389,VALID,0,VALID,100,VALID,0.0169808,VALID,18.6521,VALID,129,VALID,1.29506,
2007-10-10, 01:08:00,VALID,916.374,VALID,0,VALID,100,VALID,0,VALID,18.6429,VALID,131,VALID,1.26528,
2007-10-10, 01:09:00,VALID,916.37,VALID,0,VALID,100,VALID,0.0169808,VALID,18.6364,VALID,140,VALID,1.22731,
2007-10-10, 01:10:00,VALID,916.345,VALID,0,VALID,100,VALID,0.0679233,VALID,18.6394,VALID,139,VALID,1.41515,
2007-10-10, 01:11:00,VALID,916.316,VALID,0,VALID,100,VALID,0.0339617,VALID,18.6628,VALID,140,VALID,1.29762,
2007-10-10, 01:12:00,VALID,916.295,VALID,0,VALID,100,VALID,0.0339617,VALID,18.6656,VALID,147,VALID,0.748828,
2007-10-10, 01:13:00,VALID,916.276,VALID,0,VALID,100,VALID,0.0169808,VALID,18.6723,VALID,164,VALID,0.952106,
2007-10-10, 01:14:00,VALID,916.273,VALID,0,VALID,100,VALID,0.0169808,VALID,18.6846,VALID,146,VALID,0.679857,
2007-10-10, 01:15:00,VALID,916.273,VALID,0,VALID,100,VALID,0.0169808,VALID,18.695,VALID,152,VALID,1.0608,
2007-10-10, 01:16:00,VALID,916.285,VALID,0,VALID,100,VALID,0.0339617,VALID,18.7077,VALID,147,VALID,0.981771,
2007-10-10, 01:17:00,VALID,916.31,VALID,0,VALID,100,VALID,0.0169808,VALID,18.7235,VALID,148,VALID,1.15048,
2007-10-10, 01:18:00,VALID,916.311,VALID,0,VALID,100,VALID,0.0339617,VALID,18.7235,VALID,128,VALID,1.32736,
2007-10-10, 01:19:00,VALID,916.311,VALID,0,VALID,100,VALID,0.0169808,VALID,18.7402,VALID,121,VALID,1.06232,
2007-10-10, 01:20:00,VALID,916.304,VALID,0,VALID,100,VALID,0.0169808,VALID,18.7462,VALID,123,VALID,0.852628,
2007-10-10, 01:21:00,VALID,916.307,VALID,0,VALID,100,VALID,0.0169808,VALID,18.7397,VALID,133,VALID,0.504906,
2007-10-10, 01:22:00,VALID,916.304,VALID,0,VALID,100,VALID,-0.0339617,VALID,18.7406,VALID,130,VALID,0.793164,
2007-10-10, 01:23:00,VALID,916.31,VALID,0,VALID,100,VALID,-0.0169808,VALID,18.7341,VALID,130,VALID,0.670099,
2007-10-10, 01:24:00,VALID,916.293,VALID,0,VALID,100,VALID,-0.0509425,VALID,18.7576,VALID,96,VALID,0.737602,
2007-10-10, 01:25:00,VALID,916.287,VALID,0,VALID,100,VALID,-0.0679233,VALID,18.764,VALID,147,VALID,0.418555,
2007-10-10, 01:26:00,VALID,916.269,VALID,0,VALID,100,VALID,-0.0849042,VALID,18.7743,VALID,148,VALID,0.299055,
2007-10-10, 01:27:00,VALID,916.256,VALID,0,VALID,100,VALID,-0.0679233,VALID,18.7476,VALID,148,VALID,0.227325,
2007-10-10, 01:28:00,VALID,916.253,VALID,0,VALID,100,VALID,-0.0339617,VALID,18.7413,VALID,148,VALID,0.189317,
2007-10-10, 01:29:00,VALID,916.237,VALID,0,VALID,100,VALID,-0.0509425,VALID,18.7279,VALID,148,VALID,0.160065,
2007-10-10, 01:30:00,VALID,916.226,VALID,0,VALID,100,VALID,-0.0339617,VALID,18.7149,VALID,182,VALID,0.545486,
2007-10-10, 01:31:00,VALID,916.212,VALID,0,VALID,100,VALID,-0.0679233,VALID,18.7087,VALID,182,VALID,0.459549,
2007-10-10, 01:32:00,VALID,916.199,VALID,0,VALID,100,VALID,-0.0339617,VALID,18.6892,VALID,159,VALID,0.407779,
2007-10-10, 01:33:00,VALID,916.188,VALID,0,VALID,100,VALID,-0.0509425,VALID,18.6737,VALID,128,VALID,0.572088,
2007-10-10, 01:34:00,VALID,916.18,VALID,0,VALID,100,VALID,-0.101885,VALID,18.6338,VALID,104,VALID,0.755035,
2007-10-10, 01:35:00,VALID,916.167,VALID,0,VALID,100,VALID,-0.101885,VALID,18.6438,VALID,94,VALID,0.988372,
2007-10-10, 01:36:00,VALID,916.166,VALID,0,VALID,100,VALID,-0.101885,VALID,18.6079,VALID,91,VALID,1.05183,
2007-10-10, 01:37:00,VALID,916.156,VALID,0,VALID,100,VALID,-0.0849042,VALID,18.5954,VALID,90,VALID,0.824963,
2007-10-10, 01:38:00,VALID,916.156,VALID,0,VALID,100,VALID,-0.0849042,VALID,18.5956,VALID,91,VALID,0.72017,
2007-10-10, 01:39:00,VALID,916.164,VALID,0,VALID,100,VALID,-0.0849042,VALID,18.5762,VALID,90,VALID,0.854353,
2007-10-10, 01:40:00,VALID,916.168,VALID,0,VALID,100,VALID,-0.0339617,VALID,18.5595,VALID,76,VALID,1.02656,
2007-10-10, 01:41:00,VALID,916.174,VALID,0,VALID,100,VALID,-0.0849042,VALID,18.5498,VALID,61,VALID,1.02162,
2007-10-10, 01:42:00,VALID,916.163,VALID,0,VALID,100,VALID,-0.0339617,VALID,18.5333,VALID,63,VALID,0.906068,
2007-10-10, 01:43:00,VALID,916.163,VALID,0,VALID,100,VALID,-0.0509425,VALID,18.5333,VALID,63,VALID,0.968936,
2007-10-10, 01:44:00,VALID,916.141,VALID,0,VALID,100,VALID,-0.0679233,VALID,18.5305,VALID,59,VALID,1.00568,
2007-10-10, 01:45:00,VALID,916.117,VALID,0,VALID,100,VALID,-0.0679233,VALID,18.5398,VALID,60,VALID,0.772166,
2007-10-10, 01:46:00,VALID,916.107,VALID,0,VALID,100,VALID,-0.0679233,VALID,18.5632,VALID,60,VALID,0.373611,
2007-10-10, 01:47:00,VALID,916.09,VALID,0,VALID,100,VALID,-0.0679233,VALID,18.5924,VALID,61,VALID,0.353981,
2007-10-10, 01:48:00,VALID,916.103,VALID,0,VALID,100,VALID,-0.0339617,VALID,18.6051,VALID,64,VALID,0.439808,
2007-10-10, 01:49:00,VALID,916.099,VALID,0,VALID,100,VALID,-0.0849042,VALID,18.5889,VALID,65,VALID,0.650391,
2007-10-10, 01:50:00,VALID,916.096,VALID,0,VALID,100,VALID,-0.0679233,VALID,18.569,VALID,64,VALID,0.775981,
2007-10-10, 01:51:00,VALID,916.099,VALID,0,VALID,100,VALID,-0.0849042,VALID,18.5562,VALID,63,VALID,0.805959,
2007-10-10, 01:52:00,VALID,916.074,VALID,0,VALID,100,VALID,-0.0679233,VALID,18.546,VALID,66,VALID,1.04161,
2007-10-10, 01:53:00,VALID,916.071,VALID,0,VALID,100,VALID,-0.0849042,VALID,18.5303,VALID,64,VALID,1.13953,
2007-10-10, 01:54:00,VALID,916.051,VALID,0,VALID,100,VALID,-0.0849042,VALID,18.553,VALID,57,VALID,1.02398,
2007-10-10, 01:55:00,VALID,916.038,VALID,0,VALID,100,VALID,-0.0849042,VALID,18.5467,VALID,58,VALID,0.827148,
2007-10-10, 01:56:00,VALID,916.048,VALID,0,VALID,100,VALID,-0.0679233,VALID,18.5495,VALID,56,VALID,0.544876,
2007-10-10, 01:57:00,VALID,916.066,VALID,0,VALID,100,VALID,-0.0679233,VALID,18.556,VALID,56,VALID,0.297247,
2007-10-10, 01:58:00,VALID,916.066,VALID,0,VALID,100,VALID,-0.0849042,VALID,18.543,VALID,56,VALID,0.457889,
2007-10-10, 01:59:00,VALID,916.074,VALID,0,VALID,100,VALID,-0.0509425,VALID,18.543,VALID,53,VALID,0.499619,
2007-10-10, 02:00:00,VALID,916.086,VALID,0,VALID,100,VALID,-0.0339617,VALID,18.5463,VALID,52,VALID,0.240885,
2007-10-10, 02:01:00,VALID,916.093,VALID,0,VALID,100,VALID,-0.0679233,VALID,18.5595,VALID,52,VALID,0,
2007-10-10, 02:02:00,VALID,916.114,VALID,0,VALID,100,VALID,-0.0679233,VALID,18.5755,VALID,40,VALID,0.0379972,
2007-10-10, 02:03:00,VALID,916.127,VALID,0,VALID,100,VALID,-0.0849042,VALID,18.5884,VALID,38,VALID,0.0392361,
2007-10-10, 02:04:00,VALID,916.151,VALID,0,VALID,100,VALID,-0.0849042,VALID,18.5921,VALID,38,VALID,0.000190549,
2007-10-10, 02:05:00,VALID,916.152,VALID,0,VALID,100,VALID,-0.0169808,VALID,18.5882,VALID,27,VALID,0.297637,
2007-10-10, 02:06:00,VALID,916.157,VALID,0,VALID,100,VALID,-0.0679233,VALID,18.6012,VALID,22,VALID,0.173473,
2007-10-10, 02:07:00,VALID,916.155,VALID,0,VALID,100,VALID,-0.0509425,VALID,18.6044,VALID,258,VALID,0.351758,
2007-10-10, 02:08:00,VALID,916.155,VALID,0,VALID,100,VALID,-0.0169808,VALID,18.6209,VALID,253,VALID,0.0457317,
2007-10-10, 02:09:00,VALID,916.164,VALID,0,VALID,100,VALID,0,VALID,18.6176,VALID,253,VALID,0.294271,
2007-10-10, 02:10:00,VALID,916.173,VALID,0,VALID,100,VALID,-0.0509425,VALID,18.6079,VALID,253,VALID,0.246003,
2007-10-10, 02:11:00,VALID,916.17,VALID,0,VALID,100,VALID,-0.0679233,VALID,18.6081,VALID,253,VALID,0.237926,
2007-10-10, 02:12:00,VALID,916.18,VALID,0,VALID,100,VALID,0,VALID,18.6079,VALID,253,VALID,0.204055,
2007-10-10, 02:13:00,VALID,916.189,VALID,0,VALID,100,VALID,-0.0509425,VALID,18.6206,VALID,253,VALID,0.00181686,
2007-10-10, 02:14:00,VALID,916.208,VALID,0,VALID,100,VALID,-0.0169808,VALID,18.6241,VALID,253,VALID,0,
2007-10-10, 02:15:00,VALID,916.2,VALID,0,VALID,100,VALID,-0.0169808,VALID,18.6109,VALID,253,VALID,0,
2007-10-10, 02:16:00,VALID,916.217,VALID,0,VALID,100,VALID,-0.0169808,VALID,18.6012,VALID,253,VALID,0.0258557,
2007-10-10, 02:17:00,VALID,916.231,VALID,0,VALID,100,VALID,-0.0169808,VALID,18.5982,VALID,253,VALID,0.357195,
2007-10-10, 02:18:00,VALID,916.232,VALID,0,VALID,100,VALID,-0.0169808,VALID,18.5847,VALID,263,VALID,0.265439,
2007-10-10, 02:19:00,VALID,916.25,VALID,0,VALID,100,VALID,-0.0169808,VALID,18.578,VALID,265,VALID,0.0722222,
2007-10-10, 02:20:00,VALID,916.257,VALID,0,VALID,100,VALID,-0.0339617,VALID,18.5815,VALID,265,VALID,0.186435,
2007-10-10, 02:21:00,VALID,916.27,VALID,0,VALID,100,VALID,0,VALID,18.5685,VALID,261,VALID,0.343006,
2007-10-10, 02:22:00,VALID,916.26,VALID,0,VALID,100,VALID,-0.0169808,VALID,18.569,VALID,253,VALID,0.631098,
2007-10-10, 02:23:00,VALID,916.255,VALID,0,VALID,100,VALID,0,VALID,18.5625,VALID,260,VALID,0.611523,
2007-10-10, 02:24:00,VALID,916.244,VALID,0,VALID,100,VALID,-0.0169808,VALID,18.546,VALID,250,VALID,0.149826,
2007-10-10, 02:25:00,VALID,916.255,VALID,0,VALID,100,VALID,-0.0169808,VALID,18.5528,VALID,257,VALID,0.344122,
2007-10-10, 02:26:00,VALID,916.264,VALID,0,VALID,100,VALID,-0.0169808,VALID,18.559,VALID,280,VALID,0.261242,
2007-10-10, 02:27:00,VALID,916.268,VALID,0,VALID,100,VALID,0,VALID,18.578,VALID,280,VALID,0.0046503,
2007-10-10, 02:28:00,VALID,916.268,VALID,0,VALID,100,VALID,-0.0169808,VALID,18.5817,VALID,267,VALID,0.150856,
2007-10-10, 02:29:00,VALID,916.274,VALID,0,VALID,100,VALID,-0.0169808,VALID,18.5752,VALID,257,VALID,0.304332,
2007-10-10, 02:30:00,VALID,916.272,VALID,0,VALID,100,VALID,-0.0169808,VALID,18.5817,VALID,257,VALID,0.0390625,
2007-10-10, 02:31:00,VALID,916.251,VALID,0,VALID,100,VALID,-0.0169808,VALID,18.5815,VALID,257,VALID,0.00130208,
2007-10-10, 02:32:00,VALID,916.243,VALID,0,VALID,100,VALID,0,VALID,18.5812,VALID,257,VALID,0,
2007-10-10, 02:33:00,VALID,916.222,VALID,0,VALID,100,VALID,-0.0339617,VALID,18.6241,VALID,257,VALID,0.0915698,
2007-10-10, 02:34:00,VALID,916.211,VALID,0,VALID,100,VALID,-0.0509425,VALID,18.6498,VALID,257,VALID,0.471768,
2007-10-10, 02:35:00,VALID,916.184,VALID,0,VALID,100,VALID,-0.0509425,VALID,18.6531,VALID,257,VALID,0.599702,
2007-10-10, 02:36:00,VALID,916.151,VALID,0,VALID,100,VALID,-0.0509425,VALID,18.6436,VALID,348,VALID,0.616146,
2007-10-10, 02:37:00,VALID,916.114,VALID,0,VALID,100,VALID,-0.0169808,VALID,18.6663,VALID,46,VALID,0.642113,
2007-10-10, 02:38:00,VALID,916.069,VALID,0,VALID,100,VALID,-0.0849042,VALID,18.6663,VALID,46,VALID,0.33724,
2007-10-10, 02:39:00,VALID,916.041,VALID,0,VALID,100,VALID,-0.0679233,VALID,18.6695,VALID,46,VALID,0.261819,
2007-10-10, 02:40:00,VALID,916.007,VALID,0,VALID,100,VALID,-0.0849042,VALID,18.6827,VALID,46,VALID,0.344993,
2007-10-10, 02:41:00,VALID,915.999,VALID,0,VALID,100,VALID,-0.0339617,VALID,18.6565,VALID,46,VALID,0.373633,
2007-10-10, 02:42:00,VALID,915.982,VALID,0,VALID,100,VALID,-0.0509425,VALID,18.6823,VALID,46,VALID,0.33718,
2007-10-10, 02:43:00,VALID,915.97,VALID,0,VALID,100,VALID,-0.0679233,VALID,18.6598,VALID,46,VALID,0.0775799,
2007-10-10, 02:44:00,VALID,915.967,VALID,0,VALID,100,VALID,-0.0339617,VALID,18.663,VALID,47,VALID,0.358842,
2007-10-10, 02:45:00,VALID,915.971,VALID,0,VALID,100,VALID,-0.0509425,VALID,18.6403,VALID,75,VALID,0.457812,
2007-10-10, 02:46:00,VALID,915.966,VALID,0,VALID,100,VALID,-0.0169808,VALID,18.6239,VALID,77,VALID,0.0397569,
2007-10-10, 02:47:00,VALID,915.953,VALID,0,VALID,100,VALID,-0.0339617,VALID,18.6007,VALID,77,VALID,0.00260417,
2007-10-10, 02:48:00,VALID,915.933,VALID,0,VALID,100,VALID,-0.0339617,VALID,18.5852,VALID,77,VALID,0,
2007-10-10, 02:49:00,VALID,915.913,VALID,0,VALID,100,VALID,-0.0849042,VALID,18.5757,VALID,77,VALID,0,
2007-10-10, 02:50:00,VALID,915.89,VALID,0,VALID,100,VALID,-0.0169808,VALID,18.5655,VALID,77,VALID,0.0243902,
2007-10-10, 02:51:00,VALID,915.86,VALID,0,VALID,100,VALID,-0.0169808,VALID,18.5822,VALID,77,VALID,0.0699405,
2007-10-10, 02:52:00,VALID,915.853,VALID,0,VALID,100,VALID,-0.0169808,VALID,18.5819,VALID,77,VALID,0.147507,
2007-10-10, 02:53:00,VALID,915.853,VALID,0,VALID,100,VALID,-0.0339617,VALID,18.6014,VALID,77,VALID,0.0657986,
2007-10-10, 02:54:00,VALID,915.865,VALID,0,VALID,100,VALID,-0.0339617,VALID,18.6269,VALID,77,VALID,0.479861,
2007-10-10, 02:55:00,VALID,915.855,VALID,0,VALID,100,VALID,-0.0339617,VALID,18.6626,VALID,77,VALID,0.471701,
2007-10-10, 02:56:00,VALID,915.866,VALID,0,VALID,100,VALID,-0.0849042,VALID,18.676,VALID,77,VALID,0.321289,
2007-10-10, 02:57:00,VALID,915.86,VALID,0,VALID,100,VALID,0,VALID,18.6565,VALID,77,VALID,0.485491,
2007-10-10, 02:58:00,VALID,915.88,VALID,0,VALID,100,VALID,-0.0169808,VALID,18.6373,VALID,77,VALID,0.0708333,
2007-10-10, 02:59:00,VALID,915.875,VALID,0,VALID,100,VALID,-0.0339617,VALID,18.6176,VALID,77,VALID,0.153942,
2007-10-10, 03:00:00,VALID,915.885,VALID,0,VALID,100,VALID,0.0169808,VALID,18.6144,VALID,87,VALID,0.215892,
2007-10-10, 03:01:00,VALID,915.892,VALID,0,VALID,100,VALID,0,VALID,18.6209,VALID,149,VALID,0.515803,
2007-10-10, 03:02:00,VALID,915.887,VALID,0,VALID,100,VALID,0.0169808,VALID,18.6172,VALID,182,VALID,0.782812,
2007-10-10, 03:03:00,VALID,915.872,VALID,0,VALID,100,VALID,0.0169808,VALID,18.6338,VALID,194,VALID,0.872275,
2007-10-10, 03:04:00,VALID,915.866,VALID,0,VALID,100,VALID,0,VALID,18.6297,VALID,203,VALID,0.996366,
2007-10-10, 03:05:00,VALID,915.867,VALID,0,VALID,100,VALID,-0.0169808,VALID,18.6399,VALID,204,VALID,0.900298,
2007-10-10, 03:06:00,VALID,915.863,VALID,0,VALID,100,VALID,0,VALID,18.6468,VALID,207,VALID,0.520089,
2007-10-10, 03:07:00,VALID,915.87,VALID,0,VALID,100,VALID,0,VALID,18.6433,VALID,202,VALID,0.621466,
2007-10-10, 03:08:00,VALID,915.875,VALID,0,VALID,100,VALID,-0.0169808,VALID,18.6433,VALID,202,VALID,0.084375,
2007-10-10, 03:09:00,VALID,915.876,VALID,0,VALID,100,VALID,0.0169808,VALID,18.6498,VALID,205,VALID,0.512173,
2007-10-10, 03:10:00,VALID,915.882,VALID,0,VALID,100,VALID,0,VALID,18.6403,VALID,207,VALID,0.476381,
2007-10-10, 03:11:00,VALID,915.872,VALID,0,VALID,100,VALID,0,VALID,18.6299,VALID,208,VALID,0.658026,
2007-10-10, 03:12:00,VALID,915.857,VALID,0,VALID,100,VALID,0,VALID,18.6204,VALID,219,VALID,0.592507,
2007-10-10, 03:13:00,VALID,915.854,VALID,0,VALID,100,VALID,0,VALID,18.6204,VALID,219,VALID,0.359003,
2007-10-10, 03:14:00,VALID,915.84,VALID,0,VALID,100,VALID,0,VALID,18.6236,VALID,206,VALID,0.653274,
2007-10-10, 03:15:00,VALID,915.839,VALID,0,VALID,100,VALID,0,VALID,18.6204,VALID,209,VALID,0.215255,
2007-10-10, 03:16:00,VALID,915.854,VALID,0,VALID,100,VALID,0,VALID,18.6241,VALID,207,VALID,1.17401,
2007-10-10, 03:17:00,VALID,915.867,VALID,0,VALID,100,VALID,0,VALID,18.6141,VALID,212,VALID,1.28958,
2007-10-10, 03:18:00,VALID,915.867,VALID,0,VALID,100,VALID,0,VALID,18.5782,VALID,217,VALID,1.28374,
2007-10-10, 03:19:00,VALID,915.868,VALID,0,VALID,100,VALID,0,VALID,18.5722,VALID,215,VALID,1.17094,
2007-10-10, 03:20:00,VALID,915.864,VALID,0,VALID,100,VALID,0,VALID,18.5748,VALID,212,VALID,1.42894,
2007-10-10, 03:21:00,VALID,915.871,VALID,0,VALID,100,VALID,0,VALID,18.5717,VALID,198,VALID,1.0604,
2007-10-10, 03:22:00,VALID,915.879,VALID,0,VALID,100,VALID,0,VALID,18.5819,VALID,188,VALID,0.978609,
2007-10-10, 03:23:00,VALID,915.877,VALID,0,VALID,100,VALID,-0.0169808,VALID,18.5819,VALID,203,VALID,0.95277,
2007-10-10, 03:24:00,VALID,915.889,VALID,0,VALID,100,VALID,0,VALID,18.5653,VALID,203,VALID,1.24409,
2007-10-10, 03:25:00,VALID,915.878,VALID,0,VALID,100,VALID,-0.0169808,VALID,18.5562,VALID,203,VALID,1.16229,
2007-10-10, 03:26:00,VALID,915.856,VALID,0,VALID,100,VALID,0,VALID,18.5523,VALID,187,VALID,0.753089,
2007-10-10, 03:27:00,VALID,915.84,VALID,0,VALID,100,VALID,-0.0169808,VALID,18.5495,VALID,177,VALID,1.06813,
2007-10-10, 03:28:00,VALID,915.834,VALID,0,VALID,100,VALID,-0.0339617,VALID,18.5458,VALID,161,VALID,0.642045,
2007-10-10, 03:29:00,VALID,915.82,VALID,0,VALID,100,VALID,0,VALID,18.5463,VALID,154,VALID,1.06595,
2007-10-10, 03:30:00,VALID,915.824,VALID,0,VALID,100,VALID,-0.0169808,VALID,18.5463,VALID,152,VALID,0.949591,
2007-10-10, 03:31:00,VALID,915.815,VALID,0,VALID,100,VALID,0,VALID,18.5428,VALID,158,VALID,1.05505,
2007-10-10, 03:32:00,VALID,915.823,VALID,0,VALID,100,VALID,-0.0509425,VALID,18.5398,VALID,163,VALID,0.696948,
2007-10-10, 03:33:00,VALID,915.818,VALID,0,VALID,100,VALID,-0.0339617,VALID,18.546,VALID,155,VALID,0.849702,
2007-10-10, 03:34:00,VALID,915.823,VALID,0,VALID,100,VALID,-0.0169808,VALID,18.5294,VALID,154,VALID,0.880682,
2007-10-10, 03:35:00,VALID,915.818,VALID,0,VALID,100,VALID,0,VALID,18.5263,VALID,154,VALID,0.819196,
2007-10-10, 03:36:00,VALID,915.818,VALID,0,VALID,100,VALID,0,VALID,18.5233,VALID,165,VALID,0.796303,
2007-10-10, 03:37:00,VALID,915.811,VALID,0,VALID,100,VALID,0.0169808,VALID,18.5168,VALID,165,VALID,0.844113,
2007-10-10, 03:38:00,VALID,915.827,VALID,0,VALID,100,VALID,0,VALID,18.5071,VALID,162,VALID,1.47438,
2007-10-10, 03:39:00,VALID,915.829,VALID,0,VALID,100,VALID,0,VALID,18.4941,VALID,166,VALID,1.45403,
2007-10-10, 03:40:00,VALID,915.831,VALID,0,VALID,100,VALID,0,VALID,18.484,VALID,162,VALID,0.871773,